This is the latest recevied weather packets stored in our database for station/object N3WPH. If no packets are shown the sender has not sent any weather packets the latest 10 day(s).
| Time | Temp. | Humidity | Pressure | Rain* | Wind** | Luminosity | Snow |
|---|---|---|---|---|---|---|---|
| 1778100806 | 16.67° C | 92% | 1006.5 hPa | 0 mm | - | 53 W/m² | - |
| 1778100503 | 16.67° C | 92% | 1006.4 hPa | 0 mm | - | 52 W/m² | - |
| 1778100200 | 16.67° C | 91% | 1006.1 hPa | 0 mm | - | 50 W/m² | - |
| 1778099898 | 16.67° C | 91% | 1006.2 hPa | 0 mm | - | 83 W/m² | - |
| 1778099595 | 16.67° C | 91% | 1006 hPa | 0 mm | - | 102 W/m² | - |
| 1778099292 | 17.22° C | 91% | 1006 hPa | 0 mm | - | 81 W/m² | - |
| 1778098989 | 16.67° C | 92% | 1006 hPa | 0 mm | - | 172 W/m² | - |
| 1778098685 | 17.22° C | 92% | 1006.1 hPa | 0 mm | - | 132 W/m² | - |
| 1778098383 | 16.67° C | 92% | 1006.2 hPa | 0 mm | - | 174 W/m² | - |
| 1778098080 | 16.67° C | 93% | 1006 hPa | 0 mm | - | 189 W/m² | - |
| 1778097775 | 16.67° C | 93% | 1006.2 hPa | 0 mm | - | 135 W/m² | - |
| 1778097472 | 16.67° C | 93% | 1006.1 hPa | 0 mm | - | 116 W/m² | - |
| 1778097169 | 16.67° C | 93% | 1006.4 hPa | 0 mm | - | 117 W/m² | - |
| 1778096866 | 16.67° C | 93% | 1006.3 hPa | 0 mm | - | 108 W/m² | - |
| 1778096562 | 16.67° C | 93% | 1006.2 hPa | 0 mm | - | 110 W/m² | - |
| 1778096260 | 16.67° C | 93% | 1006.4 hPa | 0 mm | - | 111 W/m² | - |
| 1778095957 | 16.67° C | 94% | 1006.5 hPa | 0 mm | - | 134 W/m² | - |
| 1778095653 | 16.11° C | 94% | 1006.5 hPa | 0 mm | - | 117 W/m² | - |
| 1778095350 | 16.67° C | 94% | 1006.6 hPa | 0 mm | - | 136 W/m² | - |
| 1778095047 | 16.67° C | 95% | 1006.5 hPa | 0 mm | - | 144 W/m² | - |
| 1778094743 | 16.11° C | 95% | 1006.7 hPa | 0 mm | - | 158 W/m² | - |
| 1778094440 | 16.11° C | 96% | 1006.5 hPa | 0 mm | - | 321 W/m² | - |
| 1778094137 | 16.11° C | 96% | 1006.5 hPa | 0 mm | - | 207 W/m² | - |
| 1778093834 | 15.56° C | 96% | 1006.6 hPa | 0 mm | - | 168 W/m² | - |
| 1778093530 | 15.56° C | 96% | 1006.5 hPa | 0 mm | - | 144 W/m² | - |
* Rain latest hour (hover to see other rain measurements)
** Current wind speed in m/s (hover to see current wind gust speed)